Temperature
19 20 20 20 20 20 19 19 19 19 19 19 19 19 19 19 19 19 19 19 19 19 19 19 19 19 19 19 19 19 19 19 19 19 19 19 19 19 19 18 18 18 19
20 20 20 20 20 20 19 19 19 19 19 19 19 19 19 19 19 19 19 19 19 19 19 19 19 19 19 19 19 19 19 19 19 19 19 18 19 19 19 18 18 18 19
20 20 20 19 19 19 19 19 19 19 19 19 19 19 19 19 19 19 19 19 19 19 19 19 19 19 19 19 19 19 19 19 19 18 18 18 18 19 19 19 18 18 18
19 19 19 19 19 19 19 19 19 19 19 19 19 19 19 19 19 19 19 19 19 19 19 19 19 19 19 19 19 19 19 19 18 18 18 18 18 18 19 19 19 18 18
19 19 19 19 19 19 19 19 19 19 19 19 19 18 18 18 18 18 18 18 18 18 18 18 18 19 19 19 18 19 19 18 18 18 18 18 18 18 19 19 18 18 18
19 19 19 19 19 19 19 19 19 18 18 18 18 18 18 18 18 18 18 18 18 18 18 18 18 18 18 18 18 18 18 18 18 18 18 18 18 18 19 18 18 18 18
19 18 19 19 19 18 18 18 18 18 18 18 18 18 18 18 18 18 18 18 18 18 18 18 18 18 18 18 18 18 18 18 18 18 18 18 18 18 19 18 18 18 18
18 18 18 18 18 18 18 18 18 18 18 18 18 18 18 18 18 18 18 18 18 18 18 18 18 18 18 18 19 19 19 18 18 18 18 18 18 18 18 18 18 18 18
19 18 18 18 18 18 18 18 18 18 18 18 18 18 18 18 18 18 18 18 18 18 18 18 18 18 18 19 19 19 19 18 18 18 18 18 18 18 18 18 18 18 18
18 18 18 18 18 18 18 18 18 18 18 18 18 18 18 18 18 18 18 18 18 18 18 18 18 18 18 19 19 19 19 19 18 18 18 18 18 18 18 18 18 18 18
18 18 18 18 18 18 17 17 17 17 18 18 18 18 18 18 18 18 18 18 18 18 18 18 18 18 18 19 19 19 19 19 18 18 18 18 18 18 18 18 18 18 18
18 18 18 17 17 17 17 17 17 17 17 17 17 17 17 18 18 18 18 18 18 18 18 18 18 18 18 19 19 19 19 19 18 18 18 18 18 18 18 18 18 18 18
18 18 17 17 17 17 17 16 16 16 17 17 17 17 17 17 17 17 18 18 18 18 18 18 18 18 18 18 18 18 19 19 18 18 18 18 18 18 18 18 18 18 18
18 17 17 16 16 16 16 16 16 16 16 16 16 16 17 17 17 17 17 17 18 17 17 17 18 18 18 18 18 18 18 19 19 19 18 18 18 18 18 18 18 18 18
17 17 16 16 15 15 15 15 16 16 16 16 16 16 16 16 16 17 17 17 17 17 17 17 17 17 18 18 18 18 18 19 19 19 19 18 18 18 18 18 18 18 18
17 17 16 15 15 15 15 15 15 15 15 16 16 16 16 16 16 16 16 17 17 17 17 17 17 17 18 18 18 18 18 19 19 19 19 19 18 18 18 18 18 18 18
16 16 16 15 15 14 14 14 14 15 15 15 15 15 15 15 16 16 16 16 16 17 17 17 17 17 17 18 18 18 18 18 19 19 19 19 18 18 18 18 18 18 18
16 16 15 15 14 14 14 14 14 14 14 15 15 15 15 15 15 15 15 16 16 16 16 16 17 17 17 17 18 18 18 18 18 19 19 18 18 18 18 18 18 18 18
16 16 15 15 14 14 14 14 14 14 14 14 14 14 14 14 15 15 15 15 15 16 16 16 16 17 17 17 17 17 18 18 18 18 18 18 18 18 18 18 18 18 18
16 15 15 14 14 14 14 13 14 14 14 14 14 14 14 14 14 14 15 15 15 15 15 16 16 16 16 17 17 17 17 18 18 18 18 19 19 18 18 18 18 18 18
16 15 15 14 14 14 13 13 13 13 13 13 13 13 14 14 14 14 14 14 15 15 15 15 16 16 16 16 16 16 17 17 18 18 18 18 19 19 18 18 18 18 18
16 15 14 14 14 13 13 13 13 13 13 13 13 13 13 13 13 14 14 14 14 14 15 15 15 15 16 16 16 16 16 17 17 18 18 18 19 18 18 18 18 18 18
15 15 14 14 14 13 13 13 13 13 13 13 13 13 13 13 13 13 14 14 14 14 14 15 15 15 15 15 16 16 16 16 17 17 18 18 18 19 19 18 18 18 18
15 14 14 14 13 13 12 12 12 12 12 12 12 13 13 13 13 13 13 13 14 14 14 14 14 15 15 15 15 15 16 16 16 17 17 18 18 18 18 18 18 18 18
15 14 14 13 13 13 12 12 12 12 12 12 12 12 13 13 13 13 13 13 13 13 14 14 14 14 15 15 15 15 15 15 16 16 17 17 17 18 18 18 18 18 18
15 14 14 13 13 13 12 12 12 12 12 12 12 12 12 12 12 13 13 13 13 13 13 14 14 14 14 15 15 15 15 15 16 16 16 17 17 17 18 18 18 18 18
Wind_Speed
10 13 12 10 9 8 7 6 6 5 5 4 4 3 3 3 3 4 4 5 5 5 6 6 6 6 6 7 7 7 7 6 5 5 5 6 7 7 7 8 7 9 10
12 14 12 10 8 7 6 5 4 4 3 3 3 2 1 1 2 2 3 3 3 4 4 5 5 5 6 6 6 6 5 5 4 3 1 4 6 6 7 9 10 9 9
12 14 12 9 7 5 4 3 3 2 1 1 1 1 1 1 1 1 1 2 2 2 2 3 3 4 5 5 5 5 4 4 5 5 5 2 6 7 7 8 8 8 8
11 13 12 9 7 4 3 1 1 1 1 1 2 2 2 3 3 3 2 2 2 2 1 1 2 2 3 3 4 4 4 5 7 8 5 3 7 7 6 6 7 7 7
12 14 12 9 6 4 2 1 1 1 2 2 3 4 4 4 5 4 4 4 4 3 3 2 1 1 2 2 2 3 3 6 8 9 3 9 10 7 6 6 5 6 6
11 13 12 10 7 5 3 1 1 2 3 4 4 5 6 6 6 6 6 5 5 5 4 3 2 2 2 1 2 2 4 7 10 7 2 10 10 7 6 5 5 5 5
9 10 10 9 8 6 5 3 2 2 3 4 5 6 7 7 7 7 7 7 7 6 5 4 3 3 3 2 2 3 5 8 10 7 3 10 10 7 5 5 5 4 5
7 7 7 6 6 5 4 3 2 2 3 4 5 6 6 7 8 8 8 8 8 7 7 6 5 5 5 4 3 4 5 8 8 6 4 10 10 7 5 5 4 4 4
6 5 4 3 2 3 2 1 1 2 3 4 5 6 7 7 8 9 9 9 9 9 9 8 7 7 7 6 5 5 6 8 10 9 2 10 10 7 5 5 5 4 4
4 4 2 2 3 2 0 1 1 3 4 5 6 6 7 8 9 10 10 10 11 10 10 10 9 9 9 8 8 8 8 8 11 9 3 10 10 8 6 5 4 4 4
4 3 2 1 1 1 3 2 2 4 4 6 6 7 7 7 7 7 9 10 11 12 12 11 11 11 10 11 12 11 10 10 12 6 7 12 11 8 6 5 5 4 4
5 4 4 3 1 2 3 2 3 4 4 5 5 5 5 5 6 6 5 7 10 12 12 13 13 12 11 11 14 14 10 13 11 6 10 15 12 9 7 6 6 5 5
6 7 6 5 4 3 1 2 2 4 5 6 6 6 6 5 5 5 3 4 7 9 10 12 12 11 11 11 8 11 13 12 9 7 12 16 12 9 8 7 6 6 6
7 7 7 8 7 6 5 3 3 3 3 3 4 5 5 3 3 3 3 4 5 6 6 6 6 9 10 10 8 8 10 8 6 7 13 16 14 11 9 8 8 7 7
6 6 7 8 8 6 4 3 4 2 2 4 4 5 6 4 4 4 3 4 5 6 4 3 4 5 5 5 6 5 4 5 6 9 13 17 16 13 11 10 9 9 8
8 8 7 7 7 7 6 6 5 3 4 4 3 5 6 4 3 4 4 4 4 5 5 5 5 5 4 4 5 5 4 3 4 8 12 15 17 16 14 12 11 11 10
8 8 7 7 7 8 7 7 6 4 4 2 3 6 6 5 3 3 3 4 4 7 6 4 4 3 4 5 5 5 4 4 4 5 11 13 14 16 16 15 13 12 12
7 7 6 8 8 8 7 6 5 5 5 4 4 5 6 5 5 2 3 4 4 4 3 3 3 3 4 3 3 4 5 4 5 4 7 11 13 14 16 17 16 15 13
5 6 7 6 6 7 7 6 5 4 4 4 4 4 6 7 6 3 3 3 3 2 3 5 3 3 4 4 4 5 5 4 5 6 5 7 11 15 15 17 19 17 16
5 7 7 6 6 7 6 6 5 5 5 4 3 4 6 6 6 4 3 4 3 3 4 4 4 3 3 4 5 6 5 5 4 5 6 4 7 13 15 16 16 16 18
6 7 7 7 7 5 5 5 5 5 5 5 4 5 6 6 5 4 4 4 2 3 4 5 4 4 4 3 2 3 4 5 5 4 5 4 5 7 12 15 15 15 15
6 6 7 7 7 6 4 4 5 4 4 4 4 4 6 6 5 5 4 3 3 2 4 5 4 3 4 4 3 2 3 3 4 6 4 5 5 4 7 12 14 15 16
5 6 7 6 7 7 7 4 6 5 4 4 5 4 5 5 5 4 4 4 3 3 3 4 5 5 4 4 4 4 3 4 3 3 5 5 5 4 4 4 8 13 17
6 6 7 7 7 7 7 6 7 6 5 6 5 4 5 4 4 4 4 4 4 3 3 4 4 3 4 4 4 5 4 2 2 2 3 4 5 5 5 5 4 6 12
5 5 5 5 6 6 7 6 5 5 5 5 6 6 5 5 4 3 3 3 4 3 3 4 3 3 4 5 4 4 4 3 3 2 3 3 3 4 4 4 5 4 8
4 3 3 3 4 5 5 6 5 6 6 7 7 6 5 4 4 5 4 4 4 4 4 4 4 4 4 5 5 4 4 3 4 4 4 3 3 3 3 3 3 3 4
Wind_Direction
112 117 125 121 115 106 98 96 99 103 105 105 106 112 100 78 60 47 39 37 34 37 37 35 33 32 36 37 38 42 42 39 38 46 66 75 73 64 54 45 59 78 76
111 117 122 120 117 111 103 97 98 99 101 102 104 112 105 82 57 36 22 17 17 27 29 27 26 27 35 35 34 34 34 25 6 358 56 101 90 76 63 57 67 78 75
104 117 118 113 113 113 111 109 106 102 108 119 136 190 217 258 290 309 325 337 346 0 16 16 16 21 29 30 29 29 20 354 331 316 290 189 111 86 74 69 75 79 76
94 105 106 105 102 105 112 127 139 166 214 246 258 256 256 262 265 268 276 288 300 306 325 348 1 8 13 20 20 18 3 327 315 313 316 119 109 90 80 76 79 82 81
78 88 95 97 92 91 99 146 224 242 253 259 261 261 261 262 265 264 265 266 273 276 275 274 305 329 341 357 4 358 334 314 311 307 358 94 97 94 85 81 79 87 90
75 82 89 88 84 75 61 41 317 280 272 268 264 264 266 266 263 264 265 265 266 267 261 253 256 271 284 299 323 325 312 310 309 304 46 102 104 96 89 82 82 90 94
71 80 86 90 88 79 65 50 27 331 291 276 271 267 267 268 265 263 266 267 264 259 255 249 249 253 256 260 276 295 299 306 292 289 98 107 109 101 93 86 85 91 93
64 67 82 95 101 99 85 59 30 353 327 305 286 277 271 268 265 264 263 263 262 256 250 246 245 246 245 245 255 272 286 295 302 309 129 117 117 112 102 93 89 90 99
71 62 45 45 86 121 110 83 18 333 307 294 288 282 273 268 264 260 257 255 254 251 245 242 240 241 238 237 244 255 269 283 292 288 154 125 127 124 116 105 94 93 103
85 82 66 39 25 22 207 202 253 277 278 277 272 271 267 263 258 255 252 248 244 244 242 240 237 236 236 235 239 243 252 270 268 268 139 134 134 132 129 123 112 106 107
56 58 66 50 43 314 276 276 262 261 257 263 266 261 259 258 260 253 252 249 241 240 240 240 238 235 235 236 235 234 237 245 251 231 141 140 141 142 143 140 134 128 122
25 23 11 349 321 297 306 297 248 271 259 244 250 252 252 261 265 265 271 252 242 239 239 240 238 235 233 239 230 224 229 235 244 208 152 149 148 150 156 157 149 144 139
18 12 354 346 336 325 283 278 262 261 254 248 239 235 235 254 254 256 253 252 248 245 240 237 230 229 229 234 222 204 220 228 220 184 154 153 153 159 167 168 162 159 154
23 2 359 357 343 342 343 338 278 254 241 245 238 241 222 220 238 239 234 225 230 235 236 238 225 227 233 243 232 217 221 217 194 149 156 158 161 167 174 175 171 167 162
17 7 17 355 349 338 327 305 308 289 283 279 257 248 239 217 220 223 233 224 224 228 226 229 237 239 241 257 263 255 240 218 189 162 160 166 168 175 180 183 180 177 173
8 7 17 350 344 335 335 329 316 314 306 300 292 279 270 249 229 223 228 228 230 227 225 220 227 236 235 246 265 271 274 268 218 164 161 172 175 179 184 187 186 184 182
4 360 5 341 356 348 342 332 320 316 320 320 312 300 292 281 266 249 241 239 234 231 226 224 225 234 237 233 250 264 272 266 255 190 168 171 179 187 188 189 188 187 188
1 355 2 356 354 347 342 323 314 324 339 329 323 317 309 303 294 277 254 250 244 239 230 220 213 223 238 239 241 244 252 260 268 242 187 178 178 185 193 193 189 188 189
358 358 12 4 351 347 342 327 326 332 333 326 334 339 327 323 308 295 264 254 259 236 239 244 220 209 222 230 240 242 243 241 248 256 234 201 185 178 182 194 192 189 190
10 11 12 0 1 1 358 340 338 340 336 331 336 337 334 317 312 312 281 258 244 239 237 240 244 221 216 217 236 246 245 247 237 244 254 232 197 180 178 183 187 192 193
24 15 3 6 4 12 7 342 334 332 327 326 328 339 331 322 320 306 298 296 270 244 242 237 236 229 224 212 221 254 258 256 256 244 250 250 222 190 175 174 183 185 191
29 18 3 9 6 13 3 347 327 326 315 319 333 336 340 332 325 313 310 305 290 268 257 245 233 220 226 203 188 192 231 253 261 248 242 251 244 204 180 182 187 180 181
34 21 4 11 8 13 3 2 344 335 331 342 341 339 326 323 321 318 316 309 295 272 257 253 239 223 223 218 202 188 190 208 221 246 234 240 252 238 198 180 194 182 178
34 26 7 13 11 12 1 1 347 346 345 335 332 325 327 327 330 339 317 308 303 295 276 264 252 233 223 226 227 227 220 177 178 230 257 236 243 242 224 196 210 197 180
33 26 8 8 10 8 352 342 339 354 341 328 330 335 339 336 327 326 320 319 306 298 287 279 280 253 231 224 220 220 224 222 209 193 228 242 252 249 234 202 203 207 180
38 22 356 3 4 354 343 342 354 357 341 336 342 343 339 336 332 342 337 332 319 311 306 295 281 265 250 239 231 221 208 203 202 195 212 220 228 253 266 249 216 209 180
Height
1533 1532 1534 1535 1536 1537 1539 1540 1541 1542 1543 1544 1545 1545 1546 1546 1547 1547 1547 1547 1547 1547 1547 1547 1547 1547 1547 1547 1547 1546 1546 1546 1546 1546 1546 1546 1546 1546 1546 1546 1546 1546 1546
1533 1533 1535 1536 1537 1538 1539 1540 1541 1542 1543 1544 1545 1545 1546 1546 1547 1547 1547 1547 1547 1547 1547 1547 1547 1547 1547 1547 1547 1547 1547 1547 1547 1547 1547 1547 1547 1547 1547 1547 1547 1547 1547
1534 1534 1535 1536 1537 1538 1539 1540 1541 1542 1543 1544 1545 1545 1546 1546 1546 1547 1547 1547 1547 1547 1547 1548 1548 1548 1548 1548 1548 1548 1548 1548 1548 1548 1548 1548 1548 1548 1547 1547 1548 1548 1548
1535 1535 1536 1537 1537 1538 1539 1540 1541 1542 1543 1543 1544 1545 1545 1546 1546 1546 1547 1547 1547 1547 1547 1547 1548 1548 1548 1548 1548 1548 1549 1549 1549 1549 1549 1549 1549 1549 1548 1548 1548 1548 1549
1536 1536 1536 1537 1537 1538 1539 1539 1540 1541 1542 1542 1543 1543 1544 1545 1545 1545 1546 1546 1546 1547 1547 1547 1547 1547 1548 1548 1548 1549 1549 1549 1550 1550 1550 1550 1549 1549 1549 1549 1549 1549 1549
1536 1536 1536 1537 1537 1537 1538 1538 1539 1540 1540 1541 1541 1542 1543 1543 1543 1544 1544 1545 1545 1546 1546 1546 1546 1547 1547 1547 1548 1548 1549 1549 1550 1550 1550 1550 1549 1549 1549 1549 1549 1549 1550
1537 1536 1536 1536 1536 1537 1537 1537 1538 1538 1538 1539 1540 1540 1541 1541 1542 1542 1543 1543 1544 1544 1545 1545 1545 1546 1546 1547 1547 1548 1549 1549 1550 1550 1550 1550 1549 1549 1549 1549 1549 1550 1550
1537 1537 1536 1536 1536 1536 1536 1536 1536 1536 1536 1537 1537 1538 1539 1539 1540 1540 1541 1541 1542 1542 1543 1544 1544 1544 1545 1545 1546 1547 1548 1548 1549 1550 1550 1550 1549 1549 1549 1549 1549 1550 1550
1537 1537 1536 1536 1535 1534 1534 1534 1534 1534 1534 1535 1535 1535 1536 1537 1537 1538 1538 1539 1540 1540 1541 1542 1542 1543 1543 1544 1545 1546 1547 1547 1548 1549 1549 1549 1549 1549 1549 1549 1549 1550 1551
1537 1536 1536 1535 1534 1533 1533 1532 1532 1531 1531 1531 1532 1532 1533 1534 1534 1535 1536 1536 1538 1538 1539 1540 1540 1541 1542 1542 1543 1544 1545 1546 1547 1548 1548 1548 1549 1549 1549 1549 1549 1550 1551
1538 1537 1536 1534 1533 1532 1531 1530 1529 1529 1528 1528 1528 1529 1530 1530 1531 1532 1533 1533 1535 1536 1537 1538 1538 1539 1540 1540 1541 1542 1543 1544 1545 1546 1547 1547 1548 1548 1548 1548 1549 1550 1551
1538 1537 1535 1534 1532 1531 1530 1528 1527 1526 1526 1525 1525 1526 1526 1527 1528 1529 1529 1530 1532 1533 1534 1535 1536 1537 1537 1538 1539 1540 1541 1542 1544 1545 1546 1546 1547 1547 1547 1548 1548 1549 1550
1538 1536 1535 1533 1531 1529 1528 1526 1525 1524 1523 1522 1522 1522 1523 1523 1524 1525 1526 1527 1528 1530 1531 1532 1533 1534 1535 1536 1537 1538 1540 1541 1542 1544 1544 1545 1546 1546 1546 1547 1548 1549 1550
1537 1535 1533 1531 1530 1528 1526 1524 1523 1522 1521 1520 1520 1519 1520 1519 1519 1521 1522 1523 1524 1526 1527 1529 1530 1531 1532 1533 1535 1536 1537 1539 1541 1542 1542 1544 1544 1545 1545 1546 1547 1548 1549
1536 1534 1532 1530 1528 1526 1525 1523 1522 1520 1519 1518 1517 1517 1517 1517 1517 1517 1518 1519 1520 1522 1523 1525 1526 1528 1529 1530 1532 1534 1535 1537 1539 1539 1540 1542 1543 1543 1544 1545 1546 1547 1548
1535 1533 1531 1529 1527 1525 1523 1521 1520 1519 1517 1516 1515 1514 1514 1514 1514 1514 1515 1515 1516 1518 1519 1521 1522 1524 1526 1527 1529 1531 1532 1534 1536 1537 1538 1539 1540 1541 1542 1543 1544 1545 1547
1534 1532 1530 1528 1525 1523 1521 1519 1517 1516 1515 1514 1513 1512 1511 1511 1511 1511 1511 1512 1513 1515 1516 1517 1518 1520 1522 1523 1525 1527 1529 1531 1533 1534 1535 1536 1538 1539 1540 1541 1543 1544 1545
1533 1531 1529 1526 1524 1521 1519 1517 1515 1514 1513 1512 1511 1510 1509 1508 1508 1508 1508 1509 1510 1511 1512 1514 1515 1516 1518 1520 1521 1524 1525 1527 1529 1531 1533 1533 1535 1536 1538 1539 1541 1542 1544
1532 1530 1528 1525 1523 1520 1517 1515 1514 1512 1511 1509 1508 1507 1506 1505 1505 1505 1505 1506 1506 1507 1508 1510 1511 1513 1514 1516 1518 1520 1522 1523 1525 1527 1529 1531 1532 1533 1535 1537 1538 1540 1541
1531 1529 1527 1524 1522 1519 1516 1514 1512 1510 1509 1507 1506 1505 1503 1503 1502 1502 1502 1503 1503 1504 1505 1506 1507 1509 1511 1512 1514 1516 1518 1520 1521 1523 1525 1527 1529 1530 1532 1533 1535 1537 1539
1530 1528 1526 1524 1521 1518 1515 1512 1510 1508 1507 1505 1504 1503 1501 1500 1500 1499 1499 1500 1500 1501 1501 1502 1504 1505 1507 1509 1511 1512 1514 1515 1517 1519 1521 1523 1525 1527 1529 1530 1532 1534 1536
1529 1527 1526 1523 1520 1517 1514 1512 1509 1508 1506 1504 1503 1501 1499 1498 1497 1497 1497 1497 1497 1497 1498 1499 1500 1501 1503 1505 1507 1508 1509 1512 1512 1514 1517 1519 1521 1523 1525 1526 1528 1530 1533
1528 1527 1525 1523 1520 1517 1514 1511 1508 1506 1505 1503 1501 1499 1498 1496 1496 1495 1494 1494 1494 1495 1495 1496 1497 1498 1499 1501 1503 1505 1506 1506 1508 1510 1512 1515 1517 1519 1521 1523 1525 1527 1528
1528 1526 1524 1522 1519 1516 1513 1511 1508 1506 1503 1502 1500 1498 1496 1495 1494 1493 1492 1492 1492 1492 1492 1493 1494 1495 1496 1497 1499 1501 1503 1504 1505 1506 1508 1510 1512 1515 1517 1519 1521 1524 1526
1527 1525 1523 1521 1519 1516 1513 1510 1508 1505 1503 1501 1499 1497 1495 1494 1493 1492 1491 1490 1490 1490 1490 1491 1491 1491 1492 1493 1495 1497 1499 1500 1502 1503 1504 1506 1508 1510 1513 1515 1517 1520 1523
1526 1524 1522 1520 1518 1515 1513 1510 1508 1505 1502 1500 1498 1496 1494 1493 1492 1491 1489 1489 1488 1488 1488 1488 1488 1488 1489 1490 1491 1493 1494 1496 1497 1499 1500 1502 1503 1505 1508 1510 1513 1516 1519